QPF
0.36 0.55 0.71 0.79 0.76 0.71 0.75 0.68 0.54 0.48 0.36 0.27 0.21 0.19 0.19 0.20 0.22 0.24 0.23 0.22 0.22 0.23 0.24 0.23 0.18 0.15 0.11 0.09 0.09 0.08 0.06 0.05 0.04 0.02 0.02 0.02 0.02 0.05 0.07 0.09 0.13 0.16 0.16
0.43 0.64 0.84 0.87 0.82 0.76 0.67 0.57 0.46 0.43 0.39 0.32 0.25 0.22 0.22 0.23 0.24 0.28 0.25 0.27 0.27 0.28 0.28 0.26 0.25 0.23 0.20 0.16 0.12 0.09 0.06 0.05 0.04 0.03 0.03 0.02 0.02 0.02 0.02 0.04 0.06 0.08 0.09
0.50 0.52 0.58 0.62 0.60 0.58 0.55 0.47 0.41 0.43 0.38 0.36 0.32 0.29 0.31 0.32 0.30 0.31 0.33 0.34 0.33 0.31 0.28 0.29 0.28 0.24 0.19 0.13 0.09 0.07 0.06 0.04 0.04 0.04 0.04 0.03 0.02 0.02 0.02 0.03 0.03 0.04 0.05
0.31 0.41 0.43 0.47 0.51 0.53 0.53 0.44 0.37 0.38 0.36 0.33 0.32 0.31 0.29 0.30 0.34 0.39 0.42 0.39 0.38 0.37 0.36 0.34 0.28 0.21 0.14 0.10 0.09 0.07 0.05 0.04 0.03 0.04 0.04 0.04 0.03 0.04 0.03 0.03 0.02 0.03 0.04
0.16 0.22 0.29 0.33 0.35 0.35 0.35 0.31 0.27 0.29 0.28 0.28 0.28 0.27 0.26 0.26 0.27 0.30 0.34 0.34 0.30 0.26 0.25 0.25 0.24 0.20 0.14 0.09 0.05 0.03 0.03 0.02 0.02 0.03 0.04 0.05 0.05 0.06 0.06 0.04 0.03 0.03 0.03
0.17 0.18 0.18 0.23 0.21 0.17 0.18 0.17 0.15 0.17 0.17 0.18 0.23 0.26 0.28 0.30 0.32 0.27 0.22 0.19 0.17 0.18 0.20 0.21 0.18 0.15 0.12 0.08 0.04 0.03 0.02 0.02 0.02 0.02 0.04 0.04 0.05 0.05 0.05 0.05 0.04 0.04 0.03
0.12 0.14 0.13 0.11 0.09 0.09 0.10 0.10 0.08 0.09 0.10 0.11 0.13 0.16 0.20 0.23 0.25 0.24 0.19 0.16 0.13 0.13 0.12 0.13 0.13 0.10 0.08 0.06 0.04 0.03 0.03 0.02 0.02 0.02 0.03 0.03 0.03 0.04 0.04 0.04 0.05 0.05 0.05
0.05 0.06 0.11 0.10 0.05 0.04 0.04 0.06 0.07 0.06 0.06 0.07 0.08 0.10 0.13 0.14 0.15 0.13 0.11 0.09 0.07 0.05 0.05 0.06 0.05 0.04 0.03 0.02 0.02 0.02 0.02 0.02 0.02 0.02 0.02 0.02 0.03 0.03 0.03 0.04 0.04 0.05 0.06
0.02 0.02 0.03 0.05 0.04 0.03 0.03 0.03 0.04 0.04 0.04 0.05 0.07 0.11 0.11 0.10 0.07 0.06 0.05 0.04 0.03 0.02 0.02 0.02 0.02 0.02 0.02 0.02 0.01 0.01 0.01 0.01 0.01 0.02 0.02 0.02 0.03 0.03 0.03 0.03 0.03 0.04 0.05
0.02 0.01 0.01 0.02 0.02 0.02 0.02 0.01 0.01 0.02 0.02 0.02 0.03 0.03 0.04 0.03 0.02 0.02 0.02 0.02 0.02 0.01 0.01 0.02 0.01 0.01 0.01 0.01 0.01 0.01 0.02 0.02 0.02 0.02 0.02 0.02 0.03 0.03 0.03 0.03 0.03 0.03 0.04
0.02 0.01 0.01 0.01 0.01 0.01 0.01 0.01 0.01 0.01 0.01 0.01 0.01 0.01 0.01 0.01 0.01 0.01 0.01 0.01 0.01 0.01 0.01 0.01 0.01 0.01 0.01 0.01 0.01 0.01 0.01 0.02 0.02 0.02 0.02 0.02 0.02 0.02 0.02 0.02 0.02 0.02 0.02
0.01 0.01 0.01 0.01 0.01 0.01 0.01 0.00 0.00 0.00 0.00 0.00 0.00 0.00 0.00 0.00 0.00 0.00 0.00 0.00 0.00 0.00 0.00 0.00 0.00 0.01 0.01 0.01 0.01 0.01 0.01 0.01 0.01 0.01 0.02 0.02 0.02 0.01 0.01 0.01 0.01 0.01 0.01
0.02 0.02 0.02 0.01 0.01 0.01 0.00 0.00 0.00 0.00 0.00 0.00 0.00 0.00 0.00 0.00 0.00 0.00 0.00 0.00 0.00 0.00 0.00 0.00 0.00 0.00 0.00 0.01 0.01 0.01 0.01 0.01 0.01 0.01 0.01 0.01 0.01 0.01 0.01 0.00 0.00 0.00 0.00
0.02 0.01 0.01 0.01 0.01 0.00 0.00 0.00 0.00 0.00 0.00 0.00 0.00 0.00 0.00 0.00 0.00 0.00 0.00 0.00 0.00 0.00 0.00 0.00 0.00 0.00 0.00 0.00 0.00 0.00 0.00 0.00 0.00 0.00 0.00 0.00 0.00 0.00 0.00 0.00 0.00 0.00 0.00
0.02 0.01 0.01 0.01 0.01 0.01 0.01 0.01 0.01 0.00 0.00 0.00 0.00 0.00 0.00 0.00 0.00 0.00 0.00 0.00 0.00 0.00 0.00 0.00 0.00 0.00 0.00 0.00 0.00 0.00 0.00 0.00 0.00 0.00 0.00 0.00 0.00 0.00 0.00 0.00 0.00 0.00 0.00
0.03 0.03 0.03 0.02 0.02 0.01 0.01 0.01 0.01 0.00 0.00 0.00 0.00 0.00 0.00 0.00 0.00 0.00 0.00 0.00 0.00 0.00 0.00 0.00 0.00 0.00 0.00 0.00 0.00 0.00 0.00 0.00 0.00 0.00 0.00 0.00 0.00 0.00 0.00 0.00 0.00 0.00 0.00
0.04 0.05 0.06 0.06 0.04 0.02 0.02 0.01 0.01 0.01 0.00 0.00 0.00 0.00 0.00 0.00 0.00 0.00 0.01 0.00 0.00 0.00 0.00 0.00 0.00 0.00 0.00 0.00 0.00 0.00 0.00 0.00 0.00 0.00 0.00 0.00 0.00 0.00 0.00 0.00 0.00 0.00 0.00
0.02 0.03 0.04 0.04 0.04 0.02 0.01 0.01 0.01 0.01 0.01 0.01 0.00 0.00 0.00 0.00 0.00 0.00 0.00 0.00 0.00 0.00 0.00 0.00 0.00 0.00 0.00 0.00 0.00 0.00 0.00 0.00 0.00 0.00 0.00 0.00 0.00 0.00 0.00 0.00 0.00 0.00 0.00
0.03 0.03 0.03 0.03 0.02 0.02 0.01 0.01 0.01 0.01 0.01 0.01 0.01 0.00 0.01 0.01 0.00 0.00 0.00 0.00 0.00 0.00 0.00 0.00 0.00 0.00 0.00 0.00 0.00 0.00 0.00 0.00 0.00 0.00 0.00 0.00 0.00 0.00 0.00 0.00 0.00 0.00 0.00
0.04 0.04 0.03 0.02 0.01 0.01 0.01 0.01 0.01 0.00 0.01 0.01 0.01 0.00 0.00 0.00 0.00 0.00 0.00 0.00 0.00 0.00 0.01 0.00 0.00 0.00 0.00 0.00 0.00 0.00 0.00 0.00 0.00 0.00 0.00 0.00 0.00 0.00 0.00 0.00 0.00 0.00 0.00
0.03 0.03 0.02 0.01 0.01 0.01 0.01 0.01 0.01 0.00 0.00 0.00 0.00 0.00 0.00 0.00 0.00 0.00 0.00 0.00 0.00 0.00 0.00 0.00 0.00 0.00 0.00 0.00 0.00 0.00 0.00 0.00 0.00 0.00 0.00 0.00 0.00 0.00 0.00 0.00 0.00 0.00 0.00
0.02 0.02 0.02 0.02 0.01 0.01 0.01 0.01 0.01 0.00 0.00 0.00 0.00 0.00 0.00 0.00 0.00 0.00 0.00 0.00 0.00 0.00 0.00 0.00 0.00 0.00 0.00 0.00 0.00 0.00 0.00 0.00 0.00 0.00 0.00 0.00 0.00 0.00 0.00 0.00 0.00 0.00 0.01
0.02 0.02 0.02 0.02 0.02 0.01 0.01 0.01 0.01 0.00 0.00 0.00 0.00 0.00 0.00 0.00 0.00 0.00 0.00 0.00 0.00 0.00 0.00 0.00 0.00 0.00 0.00 0.00 0.00 0.00 0.00 0.00 0.00 0.00 0.00 0.00 0.00 0.01 0.01 0.01 0.00 0.00 0.00
0.01 0.01 0.01 0.01 0.01 0.01 0.01 0.01 0.01 0.00 0.00 0.00 0.00 0.00 0.00 0.00 0.00 0.00 0.00 0.00 0.00 0.00 0.00 0.00 0.00 0.00 0.00 0.00 0.00 0.00 0.00 0.00 0.00 0.00 0.00 0.00 0.00 0.01 0.01 0.01 0.01 0.00 0.01
0.01 0.01 0.01 0.01 0.01 0.00 0.00 0.00 0.00 0.00 0.00 0.00 0.00 0.00 0.00 0.00 0.01 0.01 0.00 0.00 0.00 0.00 0.00 0.00 0.00 0.00 0.00 0.00 0.00 0.00 0.00 0.00 0.00 0.00 0.00 0.00 0.01 0.01 0.01 0.01 0.01 0.01 0.01
0.01 0.01 0.01 0.01 0.01 0.00 0.00 0.00 0.00 0.00 0.00 0.00 0.00 0.00 0.00 0.00 0.01 0.00 0.00 0.00 0.00 0.00 0.00 0.00 0.00 0.00 0.00 0.00 0.00 0.00 0.00 0.00 0.00 0.00 0.00 0.00 0.00 0.00 0.01 0.01 0.00 0.00 0.00
MSLP
1009.27 1009.20 1009.18 1009.19 1009.22 1009.27 1009.34 1009.45 1009.61 1009.86 1010.22 1010.70 1011.30 1012.00 1012.75 1013.52 1014.26 1014.91 1015.44 1015.86 1016.17 1016.39 1016.56 1016.72 1016.90 1017.13 1017.40 1017.70 1018.01 1018.30 1018.56 1018.77 1018.91 1019.00 1019.04 1019.05 1019.03 1019.00 1018.96 1018.90 1018.83 1018.75 1018.65
1010.21 1010.20 1010.20 1010.19 1010.16 1010.11 1010.04 1010.01 1010.03 1010.17 1010.45 1010.89 1011.49 1012.23 1013.06 1013.92 1014.75 1015.49 1016.11 1016.60 1016.95 1017.20 1017.37 1017.51 1017.66 1017.82 1018.02 1018.25 1018.50 1018.74 1018.96 1019.15 1019.31 1019.42 1019.51 1019.56 1019.59 1019.59 1019.57 1019.52 1019.43 1019.32 1019.18
1011.11 1011.19 1011.26 1011.28 1011.23 1011.12 1010.97 1010.82 1010.73 1010.76 1010.96 1011.35 1011.93 1012.69 1013.56 1014.48 1015.39 1016.21 1016.91 1017.47 1017.88 1018.16 1018.35 1018.48 1018.59 1018.70 1018.83 1018.98 1019.15 1019.32 1019.49 1019.65 1019.79 1019.91 1020.02 1020.10 1020.16 1020.20 1020.19 1020.14 1020.05 1019.91 1019.73
1011.97 1012.17 1012.34 1012.43 1012.42 1012.31 1012.11 1011.89 1011.72 1011.66 1011.78 1012.10 1012.64 1013.38 1014.25 1015.20 1016.15 1017.03 1017.79 1018.40 1018.86 1019.19 1019.40 1019.53 1019.61 1019.68 1019.75 1019.82 1019.91 1020.01 1020.12 1020.23 1020.34 1020.46 1020.57 1020.67 1020.76 1020.81 1020.82 1020.77 1020.67 1020.51 1020.31
1012.82 1013.16 1013.46 1013.66 1013.73 1013.65 1013.46 1013.21 1012.98 1012.85 1012.89 1013.14 1013.62 1014.29 1015.13 1016.06 1017.01 1017.90 1018.69 1019.33 1019.83 1020.19 1020.42 1020.55 1020.63 1020.66 1020.68 1020.70 1020.72 1020.75 1020.80 1020.86 1020.95 1021.04 1021.15 1021.26 1021.36 1021.43 1021.45 1021.41 1021.31 1021.13 1020.90
1013.72 1014.21 1014.65 1014.98 1015.14 1015.14 1014.98 1014.73 1014.47 1014.29 1014.25 1014.42 1014.80 1015.40 1016.16 1017.03 1017.93 1018.79 1019.57 1020.22 1020.73 1021.10 1021.35 1021.49 1021.56 1021.58 1021.57 1021.54 1021.51 1021.49 1021.49 1021.52 1021.57 1021.65 1021.75 1021.86 1021.97 1022.05 1022.09 1022.05 1021.95 1021.77 1021.52
1014.70 1015.32 1015.89 1016.34 1016.61 1016.68 1016.57 1016.34 1016.08 1015.86 1015.76 1015.85 1016.14 1016.63 1017.29 1018.06 1018.88 1019.68 1020.41 1021.04 1021.54 1021.91 1022.16 1022.31 1022.38 1022.39 1022.36 1022.31 1022.25 1022.20 1022.16 1022.15 1022.18 1022.24 1022.33 1022.44 1022.56 1022.65 1022.70 1022.68 1022.58 1022.40 1022.15
1015.73 1016.46 1017.13 1017.68 1018.03 1018.18 1018.12 1017.93 1017.67 1017.44 1017.30 1017.32 1017.52 1017.91 1018.46 1019.11 1019.83 1020.54 1021.20 1021.78 1022.24 1022.60 1022.85 1023.00 1023.08 1023.09 1023.06 1022.99 1022.92 1022.84 1022.78 1022.75 1022.75 1022.80 1022.88 1022.99 1023.10 1023.21 1023.27 1023.27 1023.19 1023.03 1022.78
1016.77 1017.56 1018.30 1018.90 1019.31 1019.51 1019.50 1019.35 1019.12 1018.88 1018.73 1018.71 1018.84 1019.14 1019.58 1020.13 1020.74 1021.35 1021.93 1022.44 1022.87 1023.20 1023.44 1023.59 1023.67 1023.69 1023.67 1023.60 1023.53 1023.44 1023.36 1023.31 1023.29 1023.32 1023.38 1023.48 1023.59 1023.69 1023.77 1023.79 1023.74 1023.60 1023.37
1017.75 1018.55 1019.30 1019.91 1020.34 1020.56 1020.59 1020.48 1020.29 1020.09 1019.95 1019.91 1020.01 1020.26 1020.62 1021.08 1021.59 1022.11 1022.61 1023.05 1023.43 1023.74 1023.96 1024.12 1024.21 1024.24 1024.22 1024.17 1024.09 1024.00 1023.91 1023.83 1023.79 1023.79 1023.82 1023.90 1023.99 1024.09 1024.17 1024.21 1024.18 1024.08 1023.89
1018.59 1019.36 1020.07 1020.64 1021.04 1021.27 1021.32 1021.25 1021.12 1020.97 1020.88 1020.87 1020.98 1021.20 1021.51 1021.91 1022.34 1022.79 1023.22 1023.61 1023.95 1024.23 1024.45 1024.60 1024.70 1024.75 1024.75 1024.70 1024.63 1024.53 1024.42 1024.32 1024.25 1024.21 1024.21 1024.24 1024.30 1024.38 1024.46 1024.50 1024.50 1024.44 1024.29
1019.29 1019.98 1020.60 1021.10 1021.45 1021.65 1021.73 1021.70 1021.63 1021.57 1021.54 1021.59 1021.73 1021.96 1022.26 1022.61 1023.00 1023.39 1023.76 1024.11 1024.42 1024.68 1024.90 1025.07 1025.18 1025.24 1025.26 1025.22 1025.14 1025.04 1024.91 1024.78 1024.67 1024.58 1024.53 1024.52 1024.53 1024.58 1024.63 1024.67 1024.68 1024.64 1024.53
1019.85 1020.44 1020.95 1021.35 1021.64 1021.81 1021.89 1021.92 1021.92 1021.94 1022.00 1022.12 1022.31 1022.56 1022.86 1023.20 1023.55 1023.90 1024.23 1024.55 1024.84 1025.09 1025.32 1025.49 1025.63 1025.71 1025.73 1025.71 1025.63 1025.51 1025.36 1025.20 1025.04 1024.91 1024.80 1024.72 1024.69 1024.68 1024.70 1024.72 1024.72 1024.69 1024.60
1020.34 1020.82 1021.21 1021.52 1021.73 1021.87 1021.96 1022.03 1022.11 1022.21 1022.36 1022.55 1022.79 1023.07 1023.38 1023.69 1024.01 1024.33 1024.63 1024.92 1025.20 1025.45 1025.68 1025.88 1026.02 1026.12 1026.16 1026.14 1026.06 1025.92 1025.75 1025.56 1025.36 1025.17 1025.00 1024.87 1024.77 1024.71 1024.68 1024.66 1024.63 1024.59 1024.51
1020.83 1021.20 1021.49 1021.70 1021.85 1021.97 1022.07 1022.18 1022.32 1022.50 1022.72 1022.97 1023.25 1023.54 1023.84 1024.13 1024.42 1024.70 1024.97 1025.24 1025.50 1025.75 1025.99 1026.19 1026.35 1026.46 1026.51 1026.49 1026.40 1026.25 1026.05 1025.83 1025.59 1025.35 1025.14 1024.95 1024.80 1024.68 1024.59 1024.52 1024.45 1024.38 1024.27
1021.34 1021.63 1021.84 1021.99 1022.10 1022.20 1022.32 1022.47 1022.66 1022.89 1023.15 1023.44 1023.72 1024.01 1024.28 1024.53 1024.78 1025.02 1025.25 1025.50 1025.74 1025.99 1026.23 1026.44 1026.61 1026.72 1026.76 1026.74 1026.63 1026.47 1026.25 1026.00 1025.73 1025.46 1025.20 1024.97 1024.77 1024.60 1024.46 1024.33 1024.21 1024.08 1023.93
1021.90 1022.14 1022.30 1022.41 1022.51 1022.61 1022.75 1022.93 1023.16 1023.42 1023.69 1023.98 1024.25 1024.50 1024.72 1024.92 1025.11 1025.30 1025.50 1025.72 1025.95 1026.18 1026.42 1026.63 1026.79 1026.90 1026.93 1026.89 1026.77 1026.58 1026.34 1026.07 1025.78 1025.48 1025.20 1024.94 1024.71 1024.50 1024.30 1024.12 1023.93 1023.74 1023.54
1022.45 1022.67 1022.82 1022.93 1023.03 1023.15 1023.32 1023.52 1023.77 1024.03 1024.30 1024.56 1024.79 1024.99 1025.16 1025.30 1025.43 1025.57 1025.73 1025.92 1026.13 1026.35 1026.58 1026.78 1026.93 1027.02 1027.03 1026.97 1026.82 1026.61 1026.35 1026.05 1025.75 1025.44 1025.15 1024.87 1024.61 1024.37 1024.13 1023.90 1023.66 1023.40 1023.12
1022.92 1023.15 1023.32 1023.45 1023.58 1023.74 1023.93 1024.15 1024.40 1024.66 1024.91 1025.12 1025.30 1025.44 1025.55 1025.63 1025.72 1025.82 1025.95 1026.11 1026.31 1026.52 1026.74 1026.92 1027.06 1027.12 1027.11 1027.01 1026.83 1026.59 1026.30 1025.99 1025.67 1025.35 1025.05 1024.77 1024.50 1024.24 1023.97 1023.69 1023.40 1023.08 1022.74
1023.26 1023.52 1023.72 1023.89 1024.06 1024.25 1024.47 1024.70 1024.95 1025.19 1025.41 1025.59 1025.72 1025.81 1025.87 1025.91 1025.96 1026.04 1026.16 1026.31 1026.50 1026.71 1026.91 1027.08 1027.19 1027.23 1027.18 1027.05 1026.84 1026.56 1026.25 1025.92 1025.58 1025.26 1024.95 1024.66 1024.38 1024.11 1023.82 1023.51 1023.18 1022.81 1022.41
1023.42 1023.72 1023.96 1024.18 1024.39 1024.61 1024.85 1025.10 1025.34 1025.57 1025.76 1025.90 1026.00 1026.06 1026.09 1026.12 1026.16 1026.23 1026.35 1026.51 1026.70 1026.91 1027.10 1027.25 1027.34 1027.35 1027.27 1027.10 1026.86 1026.56 1026.22 1025.86 1025.51 1025.18 1024.87 1024.57 1024.29 1024.00 1023.70 1023.37 1023.00 1022.60 1022.17
1023.42 1023.76 1024.04 1024.29 1024.54 1024.79 1025.04 1025.29 1025.53 1025.74 1025.91 1026.04 1026.12 1026.17 1026.20 1026.24 1026.29 1026.38 1026.52 1026.69 1026.89 1027.10 1027.28 1027.42 1027.49 1027.48 1027.37 1027.17 1026.90 1026.58 1026.22 1025.85 1025.49 1025.15 1024.82 1024.52 1024.23 1023.93 1023.62 1023.28 1022.90 1022.48 1022.02
1023.33 1023.68 1023.98 1024.27 1024.53 1024.80 1025.06 1025.31 1025.54 1025.74 1025.91 1026.03 1026.12 1026.18 1026.23 1026.29 1026.37 1026.49 1026.65 1026.84 1027.04 1027.25 1027.43 1027.55 1027.61 1027.57 1027.45 1027.24 1026.96 1026.62 1026.26 1025.88 1025.52 1025.17 1024.84 1024.53 1024.23 1023.93 1023.62 1023.27 1022.89 1022.47 1022.01
1023.20 1023.56 1023.88 1024.17 1024.44 1024.71 1024.97 1025.21 1025.43 1025.62 1025.79 1025.92 1026.02 1026.11 1026.19 1026.29 1026.41 1026.55 1026.73 1026.93 1027.14 1027.34 1027.51 1027.61 1027.65 1027.60 1027.47 1027.26 1026.99 1026.66 1026.31 1025.95 1025.59 1025.25 1024.93 1024.62 1024.32 1024.02 1023.71 1023.36 1022.99 1022.57 1022.12
1023.13 1023.48 1023.79 1024.07 1024.34 1024.59 1024.83 1025.06 1025.27 1025.46 1025.63 1025.77 1025.90 1026.02 1026.14 1026.27 1026.42 1026.59 1026.77 1026.97 1027.17 1027.35 1027.49 1027.57 1027.59 1027.54 1027.41 1027.22 1026.97 1026.67 1026.36 1026.03 1025.71 1025.39 1025.09 1024.80 1024.51 1024.21 1023.91 1023.57 1023.21 1022.81 1022.38
1023.15 1023.48 1023.77 1024.04 1024.28 1024.51 1024.73 1024.94 1025.13 1025.32 1025.49 1025.65 1025.80 1025.95 1026.10 1026.26 1026.42 1026.60 1026.78 1026.96 1027.13 1027.27 1027.37 1027.43 1027.43 1027.37 1027.26 1027.09 1026.88 1026.64 1026.38 1026.11 1025.84 1025.57 1025.31 1025.05 1024.78 1024.51 1024.22 1023.90 1023.56 1023.18 1022.76
Thickness
5723 5728 5727 5726 5728 5729 5729 5728 5730 5729 5730 5730 5729 5726 5722 5718 5716 5714 5712 5712 5712 5712 5711 5708 5707 5706 5703 5701 5701 5700 5696 5694 5693 5691 5688 5688 5688 5686 5685 5683 5681 5680 5680
5714 5717 5720 5720 5717 5717 5719 5721 5720 5721 5724 5724 5724 5721 5715 5708 5705 5701 5700 5701 5702 5702 5701 5697 5695 5694 5692 5691 5691 5691 5687 5684 5683 5681 5678 5675 5675 5676 5675 5674 5672 5671 5670
5704 5706 5709 5710 5708 5705 5704 5707 5710 5710 5714 5716 5715 5712 5706 5700 5695 5692 5690 5689 5690 5689 5688 5686 5684 5683 5681 5680 5679 5679 5678 5675 5674 5672 5670 5666 5664 5664 5664 5662 5661 5660 5658
5693 5694 5696 5697 5696 5694 5692 5693 5697 5698 5701 5704 5704 5702 5696 5690 5684 5680 5679 5677 5677 5676 5675 5673 5672 5670 5668 5667 5667 5666 5666 5666 5663 5662 5660 5658 5657 5654 5653 5651 5649 5648 5646
5680 5681 5682 5683 5684 5684 5682 5681 5685 5687 5689 5690 5691 5690 5685 5679 5674 5670 5669 5667 5664 5662 5661 5659 5659 5656 5655 5653 5653 5652 5652 5652 5650 5648 5647 5646 5644 5642 5641 5638 5635 5634 5632
5668 5670 5669 5670 5671 5673 5671 5670 5672 5674 5675 5676 5677 5676 5673 5667 5663 5658 5655 5653 5650 5647 5645 5645 5644 5642 5641 5640 5640 5638 5637 5636 5635 5633 5631 5629 5627 5624 5623 5622 5620 5617 5616
5657 5658 5658 5657 5657 5658 5658 5658 5660 5660 5661 5661 5661 5660 5658 5654 5650 5645 5642 5639 5636 5634 5631 5630 5630 5628 5627 5627 5627 5625 5623 5621 5620 5617 5614 5612 5610 5609 5607 5605 5602 5601 5599
5645 5645 5644 5644 5644 5644 5644 5644 5645 5645 5644 5645 5645 5643 5642 5639 5635 5631 5628 5626 5623 5620 5618 5617 5616 5614 5614 5613 5612 5610 5607 5605 5603 5601 5598 5596 5594 5593 5591 5589 5586 5583 5580
5633 5633 5631 5631 5630 5630 5630 5630 5631 5630 5629 5629 5628 5627 5625 5623 5619 5617 5615 5612 5610 5607 5605 5603 5602 5600 5599 5598 5596 5593 5590 5589 5586 5584 5582 5579 5577 5576 5574 5572 5569 5565 5560
5622 5621 5619 5619 5618 5617 5616 5616 5616 5616 5614 5613 5613 5611 5609 5608 5605 5603 5601 5598 5596 5593 5591 5589 5587 5586 5584 5582 5580 5577 5575 5573 5570 5568 5566 5563 5561 5558 5556 5553 5551 5548 5544
5612 5610 5609 5609 5608 5606 5604 5602 5602 5601 5599 5598 5597 5596 5594 5593 5591 5589 5587 5584 5582 5579 5577 5575 5572 5570 5568 5566 5564 5562 5559 5557 5554 5552 5550 5547 5544 5541 5538 5535 5533 5529 5526
5604 5602 5600 5599 5597 5594 5591 5589 5589 5588 5586 5585 5584 5582 5580 5579 5577 5575 5573 5570 5567 5565 5563 5560 5557 5555 5553 5551 5548 5546 5544 5541 5538 5536 5533 5531 5528 5524 5521 5518 5515 5512 5510
5594 5592 5590 5588 5586 5583 5580 5578 5576 5575 5573 5572 5570 5568 5566 5565 5563 5560 5558 5556 5553 5551 5549 5546 5543 5540 5538 5536 5534 5531 5529 5526 5523 5521 5518 5516 5513 5509 5506 5502 5499 5496 5495
5586 5582 5579 5577 5575 5573 5570 5567 5565 5564 5563 5561 5558 5555 5553 5551 5549 5547 5545 5543 5540 5537 5535 5532 5529 5527 5525 5523 5521 5518 5515 5513 5510 5508 5505 5503 5499 5496 5492 5489 5484 5482 5479
5578 5574 5570 5566 5564 5562 5559 5557 5555 5553 5550 5547 5545 5542 5540 5539 5537 5535 5533 5531 5528 5526 5523 5520 5518 5515 5513 5510 5508 5505 5503 5500 5497 5495 5493 5490 5487 5484 5480 5477 5472 5470 5466
5570 5565 5561 5558 5554 5552 5550 5547 5544 5541 5539 5536 5533 5531 5530 5528 5526 5524 5522 5520 5517 5515 5513 5510 5507 5504 5501 5499 5497 5494 5491 5488 5486 5483 5481 5478 5475 5472 5469 5466 5464 5462 5459
5562 5557 5553 5549 5545 5543 5540 5537 5534 5532 5529 5526 5524 5522 5520 5518 5516 5515 5512 5509 5507 5505 5502 5499 5496 5493 5490 5488 5486 5484 5482 5479 5475 5473 5470 5468 5465 5461 5459 5457 5456 5455 5454
5553 5549 5544 5540 5537 5534 5532 5529 5526 5523 5520 5517 5515 5513 5511 5509 5507 5505 5503 5501 5498 5495 5493 5490 5487 5484 5481 5480 5478 5476 5473 5470 5467 5465 5462 5460 5457 5455 5453 5451 5450 5450 5450
5544 5539 5535 5532 5529 5526 5524 5521 5518 5515 5512 5509 5508 5506 5504 5501 5499 5497 5495 5493 5490 5488 5485 5482 5479 5476 5473 5472 5470 5468 5465 5463 5461 5460 5458 5456 5454 5453 5450 5448 5446 5447 5448
5536 5531 5527 5524 5521 5518 5515 5512 5509 5506 5504 5502 5501 5499 5497 5494 5492 5490 5487 5485 5483 5481 5479 5476 5473 5470 5467 5465 5463 5461 5459 5456 5456 5456 5456 5455 5453 5452 5450 5447 5445 5444 5446
5529 5524 5520 5516 5512 5510 5507 5504 5501 5498 5497 5496 5494 5492 5490 5487 5485 5483 5481 5479 5477 5475 5472 5469 5467 5464 5462 5460 5458 5456 5454 5452 5451 5452 5453 5454 5453 5452 5452 5450 5447 5446 5447
5522 5518 5513 5508 5505 5503 5499 5496 5493 5493 5492 5490 5488 5485 5483 5482 5479 5476 5474 5472 5470 5467 5465 5463 5460 5458 5456 5455 5453 5452 5452 5451 5449 5449 5451 5452 5454 5454 5454 5453 5451 5451 5450
5517 5511 5506 5501 5498 5496 5493 5489 5488 5488 5486 5483 5481 5479 5477 5475 5473 5470 5467 5464 5462 5460 5458 5456 5454 5452 5451 5451 5450 5450 5450 5450 5449 5449 5451 5453 5454 5455 5455 5454 5453 5452 5450
5511 5506 5500 5495 5491 5490 5488 5486 5484 5483 5480 5477 5475 5473 5470 5468 5466 5463 5461 5459 5456 5454 5453 5451 5449 5448 5447 5448 5448 5448 5449 5449 5449 5450 5452 5454 5455 5454 5454 5453 5452 5450 5448
5506 5500 5495 5490 5486 5485 5483 5482 5480 5478 5475 5472 5470 5468 5465 5462 5460 5458 5456 5454 5453 5451 5449 5448 5447 5445 5445 5446 5446 5445 5446 5446 5446 5446 5448 5449 5449 5448 5448 5448 5448 5447 5446
5502 5496 5491 5486 5483 5481 5479 5478 5477 5474 5471 5468 5466 5463 5461 5459 5456 5453 5451 5451 5450 5449 5449 5448 5447 5446 5446 5446 5446 5446 5447 5447 5447 5445 5443 5443 5443 5442 5442 5441 5442 5442 5441